Theta_e
314 319 323 320 319 319 319 321 321 324 325 316 316 319 321 326 327 327 328 329 332 330 328 330 330 332 334 334 335 337 339 341 341 337 338 348 348 345 348 348 348 348 348 348 349 349 350 348 344 342 343 345 344 343 340 336 332 330 329 328 328 327 328 331 336 340 340 340 340 341 341 342 341 341 341 341 340 340 341 342 343 345 345 345 345 344 343 338 329 322 320 322 326 329 331 332 332
320 321 320 318 319 319 320 322 320 319 319 313 315 320 322 327 327 326 328 330 332 330 329 331 332 334 335 335 335 337 341 342 343 344 345 348 347 347 347 348 349 348 349 349 351 350 351 348 343 343 345 345 344 340 335 332 332 331 329 328 328 328 332 337 339 339 340 339 340 340 340 340 340 341 341 341 340 340 341 341 343 344 345 344 344 345 341 330 321 320 323 326 328 330 331 332 332
323 320 318 319 319 319 320 323 319 314 314 313 315 322 325 326 326 326 329 330 331 330 332 333 333 336 334 337 336 338 343 342 343 344 345 347 347 347 347 348 350 350 349 348 350 351 351 347 344 345 344 343 341 336 334 333 332 329 328 328 331 335 337 338 339 338 339 340 340 339 338 339 340 342 341 341 340 340 340 342 343 344 344 344 344 344 340 326 320 322 324 327 328 328 329 329 329
322 320 320 319 318 320 323 324 321 315 313 312 313 322 326 325 326 327 329 332 332 330 334 334 335 337 337 338 337 339 344 344 345 345 345 347 347 347 348 349 350 352 350 349 350 350 350 346 344 343 343 342 339 337 336 333 330 327 328 330 334 338 338 338 338 338 339 339 338 337 338 340 341 341 340 340 340 340 341 342 342 344 344 343 344 344 340 328 321 323 325 327 327 328 328 328 328
320 319 318 318 321 323 323 324 322 316 313 315 314 321 325 324 327 329 332 333 332 331 333 334 336 339 339 341 339 341 345 344 346 346 346 348 348 347 349 350 350 352 351 350 349 349 349 344 342 342 342 341 339 340 338 332 328 329 332 336 337 337 337 338 339 339 339 338 337 339 340 340 339 339 338 338 339 340 340 342 343 344 344 343 344 343 342 331 321 323 325 326 326 327 327 328 329
319 319 319 321 322 322 322 319 317 315 317 321 319 322 324 324 329 331 333 334 333 332 332 332 334 338 340 344 343 344 346 346 347 346 347 348 348 348 349 349 350 351 351 351 348 349 346 341 341 342 341 341 340 338 334 331 329 331 333 335 335 335 336 339 339 339 339 339 340 341 341 340 339 338 338 338 339 339 339 341 343 344 343 343 343 343 343 333 323 326 331 330 326 325 327 328 328
319 320 322 323 323 324 321 316 314 317 320 324 322 323 324 325 330 331 332 333 334 333 332 332 332 336 341 344 344 346 347 347 347 345 348 348 348 349 349 349 349 349 349 349 348 348 345 341 342 341 341 342 340 334 331 330 329 330 329 328 331 334 338 340 340 339 339 340 340 340 340 339 339 339 338 339 339 339 338 339 342 343 343 343 343 342 342 335 330 333 336 334 328 326 328 328 327
320 320 322 324 325 325 320 316 317 320 322 323 323 324 323 325 330 331 331 332 333 335 333 333 332 336 341 342 344 347 347 348 348 347 348 348 349 350 349 349 348 347 346 347 348 347 344 342 343 343 343 341 337 332 331 330 328 328 325 326 331 336 339 340 340 339 339 339 340 339 338 338 338 337 337 337 337 336 335 336 340 343 343 343 343 342 342 337 334 335 336 334 329 327 328 329 329
321 322 323 324 324 321 317 317 319 322 324 323 323 324 322 325 330 331 330 330 331 332 334 334 332 336 340 342 345 345 347 349 348 348 349 348 349 349 349 349 348 347 346 346 347 346 344 343 343 342 341 337 334 333 332 330 328 327 325 327 330 334 338 340 340 339 339 338 339 339 338 338 338 337 337 337 337 336 336 337 340 343 343 343 343 342 339 333 328 329 332 331 329 328 328 329 329
323 323 324 325 322 315 313 316 319 323 324 324 323 323 323 326 330 331 330 331 330 332 334 334 333 336 339 341 344 345 347 348 348 348 348 349 349 349 349 348 347 347 346 346 347 347 345 343 343 341 338 335 334 333 332 331 328 327 325 325 326 329 334 337 337 338 338 338 339 339 339 339 339 339 340 341 340 340 340 342 342 343 343 343 342 341 335 327 325 325 326 328 329 329 328 329 328
324 323 324 322 316 311 311 315 319 323 324 324 324 323 324 328 331 330 330 331 331 332 333 333 333 336 339 342 345 346 348 349 349 349 348 349 349 349 348 348 347 347 346 347 346 347 346 344 344 342 338 335 334 333 333 331 328 327 325 324 324 325 328 330 332 334 335 338 339 339 339 340 340 340 341 342 342 342 343 343 343 343 342 342 341 336 329 324 324 325 325 326 327 328 328 329 329
323 324 325 320 314 314 314 316 318 324 325 325 326 325 327 330 330 330 330 331 331 332 332 334 334 334 338 342 345 347 348 349 349 349 349 349 349 349 348 348 347 347 347 347 347 346 345 345 344 343 339 334 334 334 333 333 329 327 325 324 324 323 323 324 326 329 334 338 339 338 339 340 340 340 341 342 342 342 343 343 343 342 342 342 338 331 327 323 320 319 322 324 325 326 327 328 328
323 324 323 319 317 319 318 317 320 324 324 325 327 328 330 330 330 329 330 330 331 332 331 334 334 334 339 343 346 347 347 349 349 349 349 348 348 349 348 348 347 347 347 347 347 345 345 344 344 344 339 334 335 334 334 333 330 327 326 325 324 323 322 322 324 328 334 337 336 337 338 339 339 340 341 341 342 342 343 343 342 342 341 339 334 331 332 332 328 323 322 322 323 324 325 326 327
323 323 322 321 321 321 319 318 320 320 321 326 327 329 331 330 330 329 330 330 330 332 332 335 333 335 340 344 346 345 347 349 349 349 349 348 349 349 348 348 347 347 347 346 346 345 345 345 345 345 342 340 339 337 337 334 331 328 326 325 324 324 323 322 324 328 332 334 334 334 336 338 339 339 340 340 342 342 342 342 342 341 339 336 333 335 336 337 337 334 330 327 326 326 327 328 330
323 323 323 322 319 319 319 319 320 318 319 326 329 329 330 329 331 330 330 330 331 333 333 336 335 334 337 340 342 344 348 348 348 349 349 349 349 349 348 348 347 347 346 346 346 345 345 345 346 345 344 345 343 343 341 336 332 329 326 326 325 325 324 323 323 327 331 334 334 334 335 338 338 338 339 339 340 340 341 340 340 340 338 336 335 335 334 333 333 332 333 332 332 332 332 332 333
322 322 324 321 316 316 318 321 320 318 320 326 329 329 328 328 331 330 330 330 331 333 333 335 336 334 334 336 340 347 350 347 348 348 349 349 349 349 348 348 346 346 346 346 345 345 345 344 345 345 345 345 345 345 343 340 335 329 326 326 326 326 325 324 324 324 329 333 334 334 335 336 337 337 338 338 337 338 339 338 337 338 338 335 333 330 327 327 326 326 326 327 331 333 333 332 331
321 322 323 319 316 316 318 322 320 318 321 324 328 329 327 328 330 330 329 328 329 332 334 335 336 335 336 338 344 350 350 347 348 348 348 349 349 348 347 347 346 345 346 346 345 344 344 344 345 345 345 345 345 345 343 343 338 333 330 328 328 328 326 326 325 324 330 335 334 334 337 339 339 338 338 337 335 333 331 329 329 331 331 328 326 324 325 327 325 323 321 321 326 329 330 332 330
322 324 321 316 318 319 319 322 320 320 322 323 326 327 327 327 329 329 327 327 329 332 335 336 336 338 339 342 349 351 348 347 348 347 347 348 348 347 346 345 344 344 344 344 344 345 344 344 345 345 345 345 345 344 343 343 340 339 339 336 335 333 329 328 332 335 337 340 338 338 341 340 340 340 339 339 339 336 328 325 326 325 324 324 325 328 331 331 326 324 321 320 322 324 329 335 335
321 324 321 318 321 321 321 322 320 321 322 322 324 326 328 327 327 328 326 327 329 331 334 333 334 337 338 344 351 350 348 347 347 347 346 347 346 346 344 344 343 343 343 343 344 345 344 343 344 344 344 344 344 344 343 343 342 342 342 341 341 339 336 336 340 342 342 342 341 341 342 341 341 341 339 337 338 337 330 325 325 325 326 328 331 335 336 330 326 327 326 324 326 329 335 337 337
322 322 321 321 322 322 322 322 321 320 320 322 322 325 327 327 328 327 325 326 328 329 331 331 332 335 337 345 351 349 348 347 346 347 347 347 347 346 346 345 344 344 344 344 344 344 344 342 342 343 343 343 343 344 344 344 343 343 342 343 342 342 341 341 343 343 342 342 341 342 342 341 342 340 338 337 338 338 333 330 330 333 334 335 336 339 339 333 332 335 332 333 337 338 339 338 336
321 321 321 322 321 322 322 322 321 320 321 321 321 326 327 327 328 326 326 327 327 327 328 330 330 334 339 345 348 349 348 347 346 346 347 348 348 348 347 347 345 345 345 345 345 344 343 343 342 343 343 343 343 344 345 344 344 343 343 343 343 342 342 342 342 342 342 342 342 342 342 341 340 340 340 341 342 342 340 339 339 341 341 340 339 340 341 339 339 340 338 338 340 340 339 339 338
320 322 322 322 322 321 322 322 321 320 321 321 322 326 327 328 329 327 326 327 328 326 327 329 330 335 341 345 347 348 347 347 347 346 347 348 347 348 348 347 347 346 346 345 346 344 344 344 343 343 343 342 343 344 345 344 344 344 344 344 343 343 342 343 342 341 342 342 342 342 342 342 341 341 342 342 343 342 342 343 342 343 343 342 341 341 341 341 341 341 340 340 340 340 340 340 339
320 322 322 322 322 321 322 322 320 320 321 322 323 326 327 328 328 327 327 328 329 328 327 328 332 337 342 346 346 346 345 345 347 348 347 347 347 347 346 347 347 347 346 346 346 345 344 344 344 343 343 342 343 343 344 344 344 345 344 344 343 343 342 342 342 341 341 342 342 342 342 342 342 342 343 343 343 343 343 343 343 343 343 343 342 342 341 342 341 341 341 341 341 341 340 340 340
320 322 322 322 321 321 322 322 321 320 321 324 325 327 328 327 328 328 328 327 331 330 327 330 336 341 343 345 345 345 345 346 348 348 348 348 347 346 346 346 346 347 347 347 347 346 344 344 344 343 343 343 342 343 343 344 344 344 344 343 343 343 343 342 342 342 341 341 342 343 343 342 343 343 343 343 343 343 343 343 343 343 343 343 342 342 342 342 341 341 341 341 341 340 340 340 340
321 321 321 321 322 322 322 322 323 322 322 325 326 327 326 327 328 330 329 327 331 332 330 334 338 340 342 344 345 345 345 348 349 348 348 347 347 346 345 345 346 346 347 347 347 347 345 344 344 344 343 343 342 343 343 344 344 344 344 343 343 343 343 343 343 342 341 341 342 342 343 343 343 343 344 344 344 344 343 343 343 343 343 342 342 342 342 342 342 341 341 341 340 340 340 340 340
321 321 321 321 321 322 322 322 323 323 323 325 326 326 327 328 329 330 328 327 332 334 334 337 338 338 341 345 346 346 345 348 350 349 347 346 346 346 346 346 345 345 346 347 346 347 346 344 344 344 343 343 342 343 343 343 343 343 344 343 344 343 343 345 343 343 342 341 341 341 342 343 343 343 344 344 344 344 343 343 343 343 343 342 342 342 342 342 342 341 341 341 340 340 340 340 340
320 320 321 321 322 322 323 323 324 323 324 326 325 326 328 330 328 327 327 329 333 335 335 337 336 337 342 345 347 348 347 349 351 349 348 347 346 346 346 346 345 345 345 346 346 346 345 344 343 344 343 343 343 343 342 343 343 343 344 344 344 344 344 345 343 343 343 342 342 342 343 343 344 344 344 344 344 344 343 343 343 343 343 343 342 342 342 341 342 341 340 340 340 340 340 340 340
320 320 320 321 322 322 323 324 325 324 325 325 325 328 330 330 328 327 329 333 335 335 337 336 335 336 340 345 346 348 349 350 351 350 349 348 347 347 346 346 346 345 345 345 346 345 345 344 343 343 344 344 343 342 342 343 343 344 344 344 344 344 345 344 343 343 343 343 343 344 344 344 344 344 344 344 344 344 343 343 344 343 343 343 343 342 342 342 342 341 340 341 341 340 340 341 341
320 320 320 322 322 323 323 325 325 325 326 326 326 325 326 329 327 326 331 334 335 338 340 337 335 335 338 344 345 347 350 351 351 350 350 349 348 348 347 347 346 345 346 345 345 345 345 344 343 343 343 344 344 343 342 343 344 345 344 344 344 345 345 344 343 344 344 344 344 344 344 344 344 345 345 345 344 344 344 344 343 343 343 343 343 342 342 342 342 341 341 341 341 340 340 340 340
321 321 320 321 320 322 324 325 325 326 326 327 325 318 320 329 327 326 332 333 336 339 340 338 336 336 337 342 343 345 349 351 352 350 350 350 349 349 348 348 347 346 346 345 346 345 345 345 344 343 343 343 344 343 343 343 343 345 345 344 344 344 343 343 344 344 344 344 344 344 344 345 345 345 345 345 345 344 344 343 343 343 343 343 343 343 343 343 342 342 341 341 341 340 339 339 339
321 321 320 321 316 317 325 325 325 327 325 328 326 316 319 328 325 329 334 333 334 335 337 338 337 338 338 341 341 342 346 350 351 349 350 350 350 349 349 349 347 346 347 346 346 345 344 345 345 344 343 343 344 344 343 343 343 344 345 345 344 343 342 343 343 343 344 344 344 344 345 345 345 345 345 345 345 345 344 344 343 343 343 343 343 343 342 343 343 342 341 340 340 339 339 339 339
322 317 314 319 315 317 326 324 323 326 325 329 326 317 321 328 326 330 334 333 334 332 334 338 338 339 339 341 341 339 344 348 349 349 350 351 350 350 349 350 348 347 347 347 346 345 345 345 345 345 345 344 344 344 344 344 345 344 345 345 345 344 343 342 342 343 344 344 345 345 345 345 345 345 345 345 345 345 344 344 344 344 343 343 343 343 343 343 342 342 342 341 340 339 339 339 339
322 317 311 315 315 317 322 324 325 324 325 328 326 321 323 327 327 328 331 332 334 331 332 337 340 340 340 342 342 339 341 346 347 349 350 350 350 350 350 350 350 348 348 348 347 346 346 346 346 346 346 346 345 345 345 345 346 346 345 345 346 345 344 343 342 343 344 344 345 345 345 345 345 345 345 345 345 345 345 344 344 344 343 343 343 343 343 343 342 342 342 341 340 339 339 339 339
316 318 314 316 318 317 318 321 325 324 324 326 327 326 325 326 328 328 329 330 331 331 330 333 338 341 341 343 343 341 342 345 347 348 350 350 350 349 350 351 350 350 349 349 349 347 347 347 347 347 347 347 347 346 345 346 346 346 346 346 345 346 346 345 343 344 344 344 345 345 346 346 345 345 345 344 345 345 345 344 344 344 344 344 343 343 343 343 342 342 341 341 340 339 339 339 338
314 315 314 315 318 318 318 320 324 324 324 325 326 326 326 326 326 327 329 329 329 330 330 330 334 341 344 345 344 343 342 344 347 349 350 350 350 350 350 351 351 351 351 350 350 350 349 349 348 348 348 348 348 347 346 346 347 346 346 346 345 346 346 346 346 344 344 344 345 346 346 346 345 345 345 345 344 344 345 344 345 344 343 344 343 343 343 342 342 342 341 340 339 339 338 338 337
317 317 316 315 315 317 321 324 324 324 324 324 325 324 325 326 326 326 327 330 330 329 331 331 333 339 345 346 345 346 345 345 348 350 350 350 351 351 350 351 351 352 352 351 351 351 351 351 350 349 349 348 348 347 346 345 346 346 346 346 345 346 345 346 346 345 345 345 345 346 347 346 346 346 345 345 344 345 345 344 345 344 343 343 343 343 342 342 342 341 340 339 339 339 337 335 333
321 320 318 317 316 317 323 325 324 324 323 323 325 324 325 326 325 326 326 328 332 331 334 334 335 337 342 345 345 346 348 348 351 353 352 351 352 352 352 351 352 352 353 353 352 352 352 352 352 351 349 348 348 347 346 345 345 346 345 345 345 346 345 346 346 346 346 345 345 346 346 346 346 346 346 345 345 345 345 345 345 345 344 343 343 343 342 342 341 340 339 338 339 338 335 333 330
322 320 318 317 317 319 324 325 322 323 321 321 324 323 324 325 325 327 326 328 331 332 334 335 336 337 340 345 346 347 350 349 352 354 354 353 353 354 353 352 352 353 354 353 353 352 353 353 353 352 349 349 349 348 347 346 345 346 345 346 345 345 345 346 347 347 346 346 346 346 346 346 346 346 346 346 346 345 345 345 345 345 344 343 343 343 342 341 340 338 338 338 336 333 331 332 328
321 320 318 315 318 320 322 323 322 322 321 321 324 322 323 326 326 326 326 328 330 331 332 333 335 337 337 341 344 346 348 348 350 351 352 353 353 354 354 353 353 353 354 354 353 353 353 353 354 353 351 350 350 349 348 347 346 346 346 346 345 345 346 346 347 347 347 347 347 346 346 345 346 346 346 346 346 345 345 345 345 345 344 343 343 342 340 339 338 336 337 337 335 330 329 331 327
322 320 316 314 319 320 316 319 323 322 321 321 323 321 322 326 326 327 328 329 330 331 331 332 333 335 336 336 339 341 342 346 349 350 351 352 353 355 355 354 353 354 354 354 354 354 354 354 355 353 352 352 351 350 349 347 346 346 345 345 345 345 346 347 347 347 347 347 347 346 345 345 344 345 346 346 345 345 345 345 344 344 344 343 342 340 339 337 336 336 336 334 332 331 330 329 326
321 322 318 316 320 320 318 321 323 322 321 323 321 316 317 324 325 327 330 330 331 332 333 334 334 334 334 334 336 337 338 341 344 346 349 352 354 355 355 355 355 354 354 354 355 355 355 355 355 354 354 354 352 350 349 347 346 345 345 345 345 344 346 347 347 347 346 347 347 346 345 344 344 344 344 345 345 345 345 345 344 343 343 343 341 339 339 337 336 336 335 332 330 331 330 327 326
317 322 323 321 322 322 322 323 321 316 315 320 319 311 312 321 324 327 331 331 331 332 333 335 336 336 335 335 335 335 335 337 340 342 343 349 353 354 355 355 355 355 355 354 355 355 356 356 355 355 355 355 354 351 349 348 347 346 345 345 344 345 346 346 346 346 346 347 347 344 343 343 344 344 344 345 345 345 345 343 342 342 342 342 340 339 338 337 337 334 332 331 329 329 327 326 326
314 320 324 323 324 323 322 322 317 311 312 320 320 312 310 317 322 328 331 329 329 330 331 333 335 337 337 337 337 336 336 336 338 339 339 343 348 351 354 355 355 355 355 354 354 354 355 355 355 355 355 355 354 352 349 348 347 347 345 345 346 346 346 346 345 346 346 347 346 343 343 343 344 345 345 345 345 344 344 341 339 340 341 342 338 338 339 337 335 331 329 331 329 326 325 325 325
314 320 323 323 323 322 322 321 315 314 315 318 320 317 311 311 319 330 329 327 329 328 328 330 331 335 336 337 338 339 340 339 338 339 340 342 345 348 351 353 354 354 354 353 352 352 352 353 354 355 354 355 354 351 349 349 347 345 344 343 344 344 344 344 344 344 344 344 343 342 343 343 343 344 345 345 343 342 342 341 339 337 338 340 338 337 338 334 330 328 327 329 327 325 324 324 324
319 321 322 322 323 322 323 320 315 316 315 311 314 316 311 310 319 328 328 326 326 326 325 326 327 330 333 335 337 339 340 340 340 340 342 344 346 347 348 351 352 352 353 353 351 351 351 352 353 353 352 352 352 348 346 349 347 342 341 341 341 341 341 342 343 343 342 341 341 341 341 341 341 342 343 343 342 341 341 341 339 338 337 338 337 336 334 329 327 327 327 327 326 325 324 323 324
321 321 321 322 323 322 323 320 315 314 313 310 311 314 311 310 316 322 325 324 324 325 323 322 325 327 328 331 333 335 338 339 340 340 343 346 347 347 348 349 350 351 352 351 350 349 351 352 351 352 351 351 352 348 345 350 348 341 341 342 341 339 340 341 341 341 341 340 340 340 339 338 339 340 341 342 341 340 339 340 339 339 338 337 335 332 328 324 323 324 325 325 325 324 323 322 323
320 321 321 321 321 322 322 320 315 312 312 311 311 314 312 311 315 319 321 322 322 323 322 321 323 324 326 327 328 330 333 335 337 339 343 347 348 348 348 348 348 349 349 348 348 349 350 351 351 351 351 351 352 350 348 350 347 343 343 344 341 339 339 339 339 339 339 339 339 339 337 337 337 339 339 340 340 339 339 340 339 339 338 336 332 326 321 320 320 321 323 323 323 323 323 322 322
320 322 320 317 317 318 316 315 315 313 311 311 313 315 312 310 315 319 320 321 321 321 321 321 322 324 325 325 325 327 328 330 333 336 340 346 349 348 348 348 347 347 348 347 348 349 350 350 350 351 351 351 351 351 351 350 347 345 343 343 341 340 339 339 338 339 339 339 338 337 336 335 336 337 337 339 340 339 339 339 339 337 335 333 327 320 319 319 320 321 322 322 322 322 322 322 323
321 320 317 313 313 314 313 313 313 312 311 312 315 315 312 313 317 319 319 318 319 320 321 321 323 325 325 323 324 325 325 327 329 332 337 342 346 348 347 347 348 347 348 348 348 349 349 349 350 350 350 351 351 350 350 349 348 346 343 342 341 340 340 339 339 339 339 339 338 338 337 335 335 335 335 337 339 338 338 337 337 335 332 329 322 318 319 319 320 322 322 322 322 322 322 322 323
320 317 313 312 313 314 315 313 312 312 311 313 315 314 312 315 319 319 319 317 318 320 322 323 324 324 324 322 322 323 324 325 326 329 333 337 344 347 347 347 347 348 348 348 348 348 349 349 349 349 350 350 349 348 347 348 348 345 344 344 342 340 338 337 338 338 339 339 339 339 338 336 335 334 333 335 337 338 336 334 334 332 329 325 320 318 319 320 321 322 322 322 322 322 322 322 322
321 321 318 314 312 313 314 313 312 312 312 313 314 313 313 315 318 319 318 317 319 321 322 323 323 323 323 322 322 323 323 324 325 328 331 334 339 343 345 347 347 348 348 348 348 348 349 349 349 349 349 349 348 347 345 344 343 342 341 341 340 338 336 335 336 337 338 339 339 339 339 337 336 335 333 333 334 336 334 332 331 329 325 321 318 318 320 320 321 322 321 322 322 322 322 322 321
321 323 318 314 315 315 314 315 317 315 313 313 312 313 316 319 319 319 318 318 319 321 322 323 322 323 323 323 323 324 324 324 325 327 330 332 335 337 342 345 346 347 346 347 347 347 348 348 348 348 348 348 347 348 346 340 336 336 336 336 335 336 335 334 335 337 338 338 339 339 339 338 337 336 334 332 330 332 331 328 327 325 323 321 319 319 320 320 321 322 322 322 323 322 322 322 321
320 318 315 316 321 320 314 315 318 316 314 313 313 315 318 319 319 319 319 319 320 320 321 322 323 324 324 324 324 324 324 324 325 326 327 330 332 334 337 340 342 344 345 345 346 346 346 347 346 346 346 346 346 347 346 340 336 334 334 334 334 334 334 333 334 336 338 338 338 339 339 338 337 336 335 332 329 327 325 323 323 324 321 318 317 318 320 321 321 322 323 322 323 323 321 321 321
320 315 316 320 321 321 317 314 314 314 313 314 314 315 316 315 317 320 321 321 320 320 320 321 322 323 323 324 324 324 324 324 324 325 326 329 330 331 333 334 337 339 342 342 343 344 344 344 344 344 344 344 344 344 341 338 336 334 332 332 332 332 333 333 334 335 336 337 337 338 338 337 336 334 332 331 327 324 323 321 320 321 318 314 316 319 320 321 322 322 323 322 322 322 322 321 322
320 318 320 320 316 315 316 314 314 314 314 314 314 313 313 313 317 321 322 322 321 320 320 320 322 322 322 323 323 323 324 324 323 323 324 326 327 328 329 330 331 334 336 338 339 340 341 341 341 341 341 341 342 341 338 335 335 334 332 332 330 331 332 333 334 335 335 335 336 336 336 335 333 331 330 328 326 323 322 321 319 320 319 316 318 321 321 322 323 323 322 322 322 322 322 321 322
321 321 321 321 317 315 315 315 315 314 314 315 314 313 313 316 321 323 322 323 322 321 320 320 321 322 322 322 322 323 323 323 323 322 322 324 325 325 326 327 328 329 331 333 335 336 337 337 337 337 337 337 338 338 336 334 333 333 333 333 331 330 330 330 332 333 333 334 335 335 335 333 331 329 328 327 325 323 322 321 319 319 319 319 320 321 322 322 323 323 323 322 322 322 322 321 321
319 318 318 318 319 318 318 317 315 313 314 314 314 314 314 319 323 323 321 321 321 320 321 320 321 321 321 322 323 322 322 322 322 321 321 323 324 323 323 324 325 326 328 329 330 331 332 332 333 334 334 334 334 335 334 333 332 331 332 332 331 330 329 329 329 330 331 333 333 334 334 332 329 328 327 326 325 323 322 322 320 319 319 320 320 321 322 322 322 322 322 322 322 322 321 321 320
321 320 318 318 319 317 315 315 314 314 313 313 314 315 315 319 321 320 319 319 318 319 320 320 320 321 321 322 323 322 322 321 321 321 321 322 322 321 321 322 322 323 325 325 326 327 328 328 329 330 330 330 331 332 332 331 331 331 331 330 330 330 329 328 328 329 329 330 330 331 331 330 328 327 326 326 325 324 323 323 322 321 320 319 319 320 321 321 322 322 322 322 322 321 321 321 320
Wind_Speed
8 9 9 9 8 9 7 5 4 3 5 2 3 2 3 2 1 2 5 5 2 1 1 1 2 3 1 2 3 3 6 4 3 1 2 4 10 14 15 18 23 23 21 20 19 21 19 19 19 19 18 18 17 16 15 15 15 15 16 16 16 16 16 17 17 16 16 16 16 15 15 16 15 15 15 13 13 13 10 8 9 9 9 10 12 14 13 11 10 11 12 13 16 17 17 17 16
6 8 8 8 8 8 3 3 5 1 1 4 4 3 5 3 2 2 3 7 4 2 3 3 4 3 1 2 3 4 4 7 6 5 7 10 14 13 16 19 21 22 23 21 19 20 18 18 19 19 19 18 17 16 16 15 15 16 16 16 16 16 16 17 17 16 16 15 15 14 15 15 15 14 14 13 13 12 11 8 8 9 10 12 14 13 12 11 12 13 14 16 17 17 16 16 15
7 7 7 7 7 7 3 3 4 4 4 5 5 4 3 1 1 2 4 9 7 6 7 6 5 3 2 4 4 3 3 6 7 8 8 12 12 12 17 18 18 19 20 20 18 18 16 18 19 19 19 18 17 16 16 16 16 16 16 16 16 16 16 17 17 16 15 14 14 14 15 15 14 14 14 13 13 12 11 9 8 9 11 13 14 12 12 12 13 14 15 17 17 16 15 14 13
7 7 7 6 5 5 4 4 3 5 4 5 5 5 2 2 3 3 5 11 8 6 8 6 5 1 3 3 4 4 4 4 6 7 8 9 10 15 18 17 17 15 16 18 18 18 17 19 20 19 18 18 17 17 16 16 16 16 15 15 16 16 16 18 17 16 15 14 15 15 15 13 12 13 14 13 13 13 12 9 8 10 11 13 13 12 12 12 13 14 15 16 15 14 13 12 11
7 7 7 7 5 2 4 3 2 3 5 5 5 6 4 4 3 4 7 12 8 5 7 4 3 2 2 5 2 1 4 4 6 6 8 9 13 18 18 17 16 14 14 16 18 19 19 20 20 18 18 17 17 17 16 16 15 15 15 15 16 16 16 17 16 15 14 14 15 14 13 12 12 12 13 13 12 12 11 8 9 10 11 12 12 12 12 11 12 13 14 14 13 12 11 11 11
7 8 8 8 4 2 4 2 2 4 7 5 5 6 5 3 2 5 7 10 9 5 7 2 1 5 3 6 4 3 4 3 5 6 9 11 16 19 18 18 16 15 14 15 17 19 19 20 19 19 18 17 17 16 16 15 15 14 14 15 15 16 16 17 15 14 14 14 14 13 12 11 12 12 12 11 10 10 10 9 9 10 10 12 11 12 12 10 11 12 12 12 11 10 10 10 11
7 6 6 6 3 2 4 2 4 5 7 5 6 6 5 3 2 5 7 7 7 6 9 5 5 5 5 5 5 6 4 4 5 6 10 14 18 19 18 17 16 17 16 16 17 18 19 19 19 18 17 17 16 15 15 14 14 14 14 14 15 15 16 16 15 14 14 14 14 13 11 10 11 11 11 10 9 9 9 9 9 9 10 12 11 12 11 10 10 11 10 10 10 10 9 9 9
7 5 3 4 3 3 2 4 5 5 6 5 4 5 5 2 3 4 4 3 4 5 7 7 4 2 5 3 4 6 6 5 6 10 14 17 19 18 17 16 17 17 16 17 18 19 18 18 18 18 17 16 15 15 14 14 13 13 13 14 15 15 16 16 15 14 14 15 14 12 11 10 10 10 10 9 9 8 8 8 8 8 10 12 12 12 11 9 9 10 9 9 9 8 8 7 6
7 5 3 4 3 0 2 4 5 5 6 6 5 4 3 1 4 3 2 1 3 4 5 7 2 1 6 5 6 7 6 6 10 13 15 18 18 17 16 15 16 16 16 17 18 19 17 17 17 16 16 15 15 14 13 13 13 13 13 14 14 15 15 15 15 15 14 14 14 12 11 11 11 10 10 9 8 8 8 8 8 9 12 12 12 11 10 8 8 8 9 9 8 7 6 5 4
5 4 3 4 2 3 4 5 5 6 7 7 7 5 2 3 4 2 2 4 4 4 5 5 4 5 8 7 7 6 7 10 13 15 16 17 17 16 16 15 16 16 16 16 17 18 17 16 16 15 16 15 15 13 13 12 12 12 12 13 13 14 14 14 14 14 14 14 14 12 12 11 11 11 10 9 9 9 10 10 10 12 13 12 11 10 8 7 7 7 8 8 7 6 5 4 3
5 2 3 3 2 5 5 5 6 7 7 6 8 6 3 4 4 2 3 5 4 3 5 4 5 9 9 7 6 6 9 12 14 15 16 16 16 15 16 16 16 16 15 16 17 17 16 15 15 15 15 15 14 13 12 11 12 11 12 12 12 13 13 13 12 13 14 14 13 12 12 11 11 11 11 10 10 11 11 12 13 14 13 12 10 8 7 7 6 6 6 6 6 5 4 3 2
5 3 4 2 5 5 5 6 7 7 6 6 8 6 4 5 4 3 3 5 4 4 5 3 5 9 8 7 5 8 10 12 13 15 15 16 16 15 15 16 16 16 15 16 16 16 16 15 14 14 14 14 13 12 11 11 11 11 11 12 12 12 11 11 12 13 14 13 12 12 12 11 10 11 11 10 11 12 13 13 13 13 12 10 9 7 7 7 7 7 6 6 5 4 3 3 2
4 5 5 4 4 4 6 5 6 5 5 6 7 6 3 4 2 3 3 5 4 4 5 3 6 7 6 8 6 8 10 12 13 15 15 15 15 14 14 15 15 16 15 15 16 16 16 15 14 13 13 13 12 11 11 10 10 10 11 11 11 11 10 11 12 14 14 13 12 11 12 11 10 11 11 11 11 11 12 12 12 11 10 9 8 7 7 7 8 8 7 6 5 4 3 3 2
4 5 5 3 3 4 7 4 5 5 4 5 5 5 3 2 2 2 3 5 5 4 6 6 6 5 6 7 5 7 10 13 14 16 16 14 14 14 14 14 15 15 14 15 15 15 15 14 14 14 14 13 12 11 10 10 10 10 10 11 11 10 10 10 11 12 13 12 12 11 13 12 11 10 10 11 10 10 10 10 10 9 9 8 7 7 6 6 6 6 6 6 5 5 4 4 3
5 4 4 3 4 5 6 5 5 3 4 4 5 4 3 3 1 2 2 3 6 6 5 6 3 2 7 6 5 8 13 17 17 18 17 15 14 13 14 15 15 14 13 14 14 14 14 13 14 14 14 13 12 11 10 10 9 10 10 10 10 10 10 10 10 10 11 11 11 11 12 11 11 10 10 10 9 9 9 8 8 7 7 7 6 6 5 5 4 3 3 4 4 4 4 3 2
4 5 5 2 5 6 7 8 5 2 5 4 5 4 4 4 2 1 2 2 6 5 5 6 1 1 5 4 7 15 18 20 19 19 18 16 15 13 14 15 15 14 13 13 14 14 13 13 13 13 13 13 12 11 11 10 9 10 10 10 10 10 10 9 9 9 10 10 10 11 11 10 10 10 9 9 8 10 10 7 7 8 7 6 6 5 5 4 3 2 2 3 3 3 3 2 2
3 5 4 3 5 7 8 8 7 5 5 2 5 5 5 6 4 1 2 2 6 8 5 4 2 2 3 5 13 21 21 21 20 20 18 17 16 14 15 15 15 15 13 14 13 14 13 13 13 12 13 12 12 11 11 10 9 10 10 10 10 10 10 9 9 9 10 9 9 11 11 9 9 9 8 8 7 8 9 8 8 8 7 6 5 5 4 4 3 3 3 3 3 3 3 2 2
4 4 4 4 6 8 8 8 8 6 6 2 3 6 6 5 7 4 5 4 5 9 6 4 4 3 4 7 16 22 21 21 20 20 19 17 16 16 16 16 16 15 15 15 14 15 14 13 12 11 12 12 11 11 11 10 10 10 10 10 9 9 10 9 9 8 8 9 9 9 9 8 8 8 8 8 7 6 7 8 8 7 7 6 5 5 4 4 4 5 4 4 4 3 4 2 1
4 4 4 5 7 8 7 7 7 7 7 5 3 7 6 5 8 7 7 6 7 9 8 7 7 6 6 10 17 20 19 20 20 20 20 19 18 17 17 16 17 16 16 16 15 15 14 13 12 11 11 11 11 10 10 11 11 11 10 10 9 9 10 9 9 9 9 9 9 8 8 8 8 8 9 9 9 8 6 7 8 7 6 5 5 5 4 4 5 5 5 5 5 4 3 1 1
2 4 4 6 8 8 6 7 7 7 8 8 6 7 7 4 7 7 7 6 8 9 7 9 9 10 11 14 18 19 18 18 19 19 19 18 18 17 16 16 17 16 16 15 15 16 15 13 13 12 12 12 12 10 10 11 11 11 10 10 9 9 9 9 9 9 9 8 8 8 7 8 7 7 9 9 8 7 6 6 7 6 5 4 5 4 3 3 4 3 3 4 3 3 1 0 0
3 3 5 7 8 8 8 10 7 6 7 7 5 7 8 6 6 7 8 6 8 9 8 9 9 13 15 16 18 19 18 18 19 19 18 17 16 16 15 14 14 14 15 14 14 16 16 14 14 13 12 13 12 10 10 10 11 10 10 10 9 9 9 9 9 9 8 8 8 7 8 8 7 7 7 6 6 6 6 5 5 5 4 3 4 3 1 1 1 0 1 2 1 1 1 1 2
5 3 5 7 9 8 10 11 6 5 6 5 6 8 8 7 7 8 10 6 3 4 7 8 8 13 16 18 19 18 18 18 19 18 18 17 15 15 14 13 12 13 13 13 13 15 16 14 14 13 13 13 12 10 9 10 10 9 10 10 9 9 9 9 9 9 9 9 8 7 8 8 7 7 6 5 6 6 5 5 4 4 4 4 3 2 2 1 1 1 0 1 1 1 1 2 2
5 3 3 6 9 9 10 11 6 4 5 5 5 6 6 8 8 8 11 7 4 4 4 6 7 12 15 17 17 17 17 17 18 18 17 16 16 15 15 13 13 12 12 12 12 14 16 15 14 14 13 13 12 10 9 9 9 9 9 9 9 9 9 9 9 10 10 9 9 8 8 8 7 7 7 6 5 5 5 4 3 3 3 3 2 1 1 1 0 0 0 1 1 1 1 2 2
6 5 4 7 9 10 11 10 7 5 5 4 4 5 7 10 8 6 11 9 3 5 2 6 9 13 15 16 16 15 16 16 17 17 15 15 15 15 14 14 13 12 11 12 12 13 16 16 15 14 13 13 13 11 10 9 9 8 9 9 9 9 9 9 9 10 10 9 8 8 8 7 7 7 7 6 5 5 4 3 3 2 2 2 1 1 0 0 0 1 1 1 2 2 2 2 3
6 6 7 9 9 10 10 8 6 4 4 3 5 6 7 8 4 4 10 9 4 4 5 9 12 14 15 15 15 15 15 15 16 16 15 14 14 14 13 13 14 13 12 12 12 13 15 16 16 15 14 14 13 12 10 9 8 8 8 9 9 9 9 8 9 10 10 9 8 8 8 7 6 6 6 6 5 5 4 3 3 2 2 1 1 0 0 1 1 1 1 2 2 3 3 3 4
2 8 10 10 11 11 9 7 4 2 3 3 6 7 6 4 2 6 11 9 7 6 7 10 12 14 14 14 15 14 14 15 15 16 15 14 14 15 14 14 14 14 13 12 12 12 14 16 16 16 15 14 14 13 11 9 9 9 9 9 9 9 9 8 10 10 10 9 9 9 8 7 6 5 5 5 4 4 4 3 3 2 2 1 1 1 1 1 1 1 2 2 3 3 3 4 4
6 10 11 11 12 9 7 5 2 1 2 4 6 5 5 4 4 7 7 7 9 9 9 11 12 14 14 14 14 13 13 15 15 15 15 15 14 16 16 15 15 15 14 13 13 12 14 15 16 17 16 15 14 14 12 11 10 9 9 9 9 9 8 8 9 9 9 9 9 9 8 7 6 5 5 4 4 4 4 3 3 3 2 2 2 1 1 1 2 2 2 3 3 4 4 4 5
7 10 10 10 9 5 4 4 3 1 2 2 5 3 4 5 8 9 4 8 10 10 10 12 12 13 14 14 13 12 11 15 16 15 16 16 15 15 16 16 15 15 14 15 14 12 13 15 16 17 17 16 15 15 13 12 11 10 10 9 9 9 8 8 8 9 9 8 8 9 8 7 6 5 5 4 4 4 4 3 3 3 3 3 2 2 2 1 2 2 2 2 3 4 4 5 5
7 8 9 9 7 3 2 4 3 2 1 2 4 4 7 8 11 10 7 9 8 9 10 11 11 12 14 14 13 11 12 15 16 16 17 17 15 15 16 16 15 15 14 15 14 12 13 15 16 17 17 17 16 16 14 13 12 11 10 10 9 9 9 8 8 8 8 8 9 9 8 7 6 6 6 6 5 5 4 4 4 4 3 3 3 2 2 2 2 2 2 2 2 3 4 4 5
7 6 6 8 6 5 4 5 2 1 2 3 5 4 4 8 10 8 8 9 9 9 9 10 10 10 12 13 12 12 12 14 16 17 17 17 16 15 16 16 15 15 13 13 15 14 14 14 15 17 18 18 17 16 15 13 12 11 10 10 9 10 10 9 9 8 8 8 9 9 9 8 8 7 7 7 6 6 5 5 5 4 4 4 3 3 3 2 2 2 2 2 2 3 4 4 5
6 6 5 5 5 4 7 4 2 1 3 3 6 4 0 2 4 7 9 9 10 9 9 10 10 10 11 12 13 12 13 14 16 17 17 17 16 14 15 16 16 16 13 13 15 15 15 15 15 16 18 19 17 16 15 13 12 11 9 9 9 10 10 10 10 9 9 9 9 10 10 10 9 8 8 8 7 7 6 6 5 4 4 4 3 4 3 3 2 2 2 2 3 4 4 4 5
5 6 5 3 3 3 6 3 3 2 2 4 6 4 2 1 2 4 6 8 10 10 9 10 10 11 11 11 12 12 12 14 16 17 17 17 16 15 15 16 17 17 16 14 14 16 17 16 16 15 17 19 17 17 15 13 12 11 9 8 8 10 10 10 11 11 11 11 11 11 12 12 11 11 10 9 9 8 7 7 6 5 4 4 4 4 4 3 2 2 1 2 4 4 4 5 5
5 6 4 1 3 1 4 4 1 2 1 5 7 4 3 1 3 3 4 7 9 9 9 10 10 11 11 10 11 11 11 13 15 16 18 17 17 16 15 16 17 17 17 15 15 17 18 18 17 16 17 18 18 17 16 13 12 11 10 9 8 10 10 10 11 12 12 13 13 13 13 13 13 12 12 11 10 9 8 8 7 6 6 5 5 5 4 3 2 3 2 2 3 4 5 5 5
5 5 4 2 3 3 2 5 4 2 2 4 7 6 6 2 2 4 5 6 7 9 10 10 10 10 10 10 10 11 11 12 13 15 19 18 17 16 15 16 17 17 17 16 16 17 18 18 18 17 17 17 17 16 16 14 13 11 10 10 9 10 11 11 12 12 13 14 14 13 13 14 14 14 14 13 12 11 10 9 8 8 7 7 6 6 5 4 3 4 4 3 3 4 4 4 5
2 2 3 3 4 5 2 2 3 2 4 4 5 6 6 4 1 3 5 5 6 7 9 9 9 9 10 10 10 11 12 12 11 14 18 18 17 17 16 15 16 17 17 17 17 17 17 18 18 18 17 17 16 16 15 14 13 12 11 11 10 10 11 12 13 14 14 14 14 14 14 14 15 15 15 15 14 13 12 11 10 10 9 8 8 7 6 5 5 5 4 4 3 3 3 4 5
2 2 4 4 3 5 2 1 2 2 5 4 4 5 4 3 1 1 2 1 5 5 7 8 8 8 8 8 8 8 9 9 9 12 16 17 16 16 16 15 16 16 17 18 18 18 18 18 19 19 19 17 16 15 15 15 14 13 12 11 11 11 11 13 14 14 14 15 15 15 15 15 15 15 16 16 15 15 14 13 12 12 11 10 9 9 7 7 7 6 5 5 4 3 2 3 4
4 4 5 6 5 4 2 1 2 2 6 3 1 4 3 3 2 6 6 3 4 4 4 4 5 4 4 5 5 5 5 5 6 8 11 14 15 15 15 15 15 16 16 18 19 19 20 19 19 20 19 18 17 16 16 16 15 14 13 13 13 12 13 13 14 15 15 15 16 16 16 16 16 16 17 17 17 16 15 14 14 13 12 11 10 9 8 8 8 7 6 5 4 3 1 1 4
5 6 6 6 7 3 3 2 3 1 5 2 1 4 4 1 5 10 10 8 7 7 6 4 5 3 2 2 2 3 4 4 5 6 8 11 13 14 15 14 15 17 17 19 19 20 20 20 20 20 19 19 19 17 16 16 16 14 14 14 14 14 15 15 14 15 17 16 16 17 17 17 17 17 18 18 18 18 17 16 16 15 13 12 10 9 9 9 9 8 7 5 4 2 1 1 4
5 6 6 5 5 4 4 4 4 2 4 1 1 5 3 4 10 13 11 10 9 9 7 5 5 3 1 1 2 4 6 7 8 9 11 13 15 16 16 15 16 17 18 19 20 20 20 20 21 20 20 20 19 18 17 17 16 16 16 16 18 18 17 16 15 14 15 16 18 18 19 20 19 18 18 19 20 20 19 18 17 17 15 12 11 10 11 11 10 10 8 6 5 3 2 2 3
6 5 6 5 5 4 4 5 4 2 3 2 2 5 3 5 10 12 12 12 11 11 11 9 7 5 3 1 0 3 5 6 8 9 11 13 16 18 18 17 17 17 18 19 20 20 21 21 21 20 20 20 20 19 19 19 20 22 22 21 22 21 18 16 16 16 16 17 19 21 21 22 22 21 20 20 21 22 21 20 19 18 16 14 13 13 12 12 12 11 9 7 6 5 4 3 3
7 6 7 5 4 4 2 4 4 5 4 3 5 6 4 3 8 9 10 11 12 12 13 12 11 8 6 4 3 1 2 3 5 6 7 10 12 15 17 18 17 18 19 20 21 21 21 21 20 20 19 19 20 20 21 24 26 25 23 21 19 17 13 13 15 17 18 19 20 22 23 24 24 24 24 23 23 23 22 22 21 19 18 16 15 14 12 12 12 11 10 8 7 6 5 5 3
6 7 7 5 3 3 3 4 5 6 6 4 3 6 4 5 8 8 7 10 13 13 13 14 13 12 10 9 8 5 3 0 2 4 4 7 9 11 13 14 16 17 18 18 19 19 20 18 18 19 18 19 20 20 23 27 29 27 23 20 18 15 13 14 16 18 20 20 22 28 28 28 28 26 26 26 25 24 23 22 22 19 19 18 15 14 13 13 12 11 10 9 8 7 6 6 5
4 5 4 3 3 4 5 5 6 7 2 4 2 6 3 5 7 8 8 11 13 13 15 15 13 13 12 11 11 9 8 6 3 1 2 3 5 8 10 12 14 15 14 15 15 17 18 17 17 18 17 17 17 20 25 29 29 26 22 19 18 15 13 14 16 20 22 21 24 30 29 27 27 24 24 24 23 24 22 19 20 20 17 17 15 15 14 13 12 11 11 10 10 9 8 8 7
2 5 1 2 4 5 6 6 7 5 1 3 5 5 5 3 5 7 7 10 14 14 15 15 14 14 14 13 13 13 12 11 8 7 5 4 3 5 7 9 11 11 12 13 14 16 17 17 17 17 17 16 14 17 25 29 26 19 16 15 12 11 13 18 22 24 23 21 23 26 24 20 18 18 20 21 19 21 20 16 18 21 19 16 15 16 15 14 13 12 12 11 11 10 9 8 8
2 5 1 2 2 4 6 7 7 3 2 5 7 5 6 4 5 6 6 9 12 13 13 14 14 14 15 14 14 14 13 13 12 11 10 8 5 4 5 6 8 9 10 11 13 14 15 16 17 18 18 17 15 15 20 26 23 17 18 20 17 19 24 30 32 25 19 18 18 19 18 13 12 14 16 18 20 22 21 17 17 20 21 18 17 16 15 15 14 14 13 13 12 11 9 8 8
3 3 1 2 2 4 5 7 6 3 4 8 6 6 6 3 5 4 5 7 9 9 10 11 12 13 14 14 14 14 13 12 13 13 12 11 9 6 5 5 5 6 7 9 11 12 13 14 16 17 18 17 17 15 17 21 20 19 25 30 30 32 35 36 30 20 16 17 16 15 12 9 15 18 18 22 25 24 22 21 21 22 23 21 19 17 15 16 16 15 14 14 12 11 10 8 7
2 2 4 4 5 5 5 5 5 5 6 9 7 6 6 4 3 4 4 5 5 6 7 9 11 13 13 13 13 13 12 12 12 12 12 12 11 10 9 6 5 5 6 7 8 10 11 12 13 15 16 16 16 14 17 19 18 22 29 34 36 36 35 34 27 20 18 17 14 13 13 19 28 27 26 30 31 28 27 27 27 25 24 22 20 17 16 17 16 15 15 14 13 11 10 9 8
4 6 6 6 5 4 5 5 5 7 7 7 5 7 7 6 3 6 7 7 6 6 7 9 11 12 12 12 12 13 12 12 12 12 11 11 11 13 13 10 8 6 5 5 6 8 9 10 11 13 14 15 15 13 15 17 18 24 28 28 30 31 29 26 23 21 19 16 14 15 19 26 28 24 28 34 34 33 32 31 29 25 22 22 20 18 17 17 16 16 15 14 13 12 11 10 9
6 7 6 7 6 5 7 7 6 7 6 2 5 7 6 2 6 8 8 9 7 7 7 8 10 11 11 12 12 12 12 13 13 12 12 11 10 12 13 11 10 8 6 5 5 6 8 9 10 12 13 14 14 13 13 16 21 25 25 22 24 25 24 22 20 20 18 16 17 17 19 20 19 20 28 34 35 35 32 29 28 25 24 24 22 19 19 18 17 16 16 15 14 13 12 10 9
7 7 7 8 7 7 8 8 7 7 5 5 6 6 5 4 7 8 9 9 7 7 7 8 9 10 11 12 12 12 13 14 13 13 13 12 11 12 12 12 12 10 9 7 5 5 7 9 9 12 13 13 14 14 14 16 20 22 21 20 18 16 15 15 16 17 16 16 18 19 18 17 17 21 27 33 38 38 33 29 28 27 26 26 24 21 18 18 18 17 16 15 14 13 12 11 9
5 4 6 7 7 8 8 7 7 7 4 5 6 5 5 5 8 9 9 8 7 7 7 8 9 10 10 11 12 13 14 13 13 14 14 14 14 14 13 12 12 12 11 10 7 6 7 9 10 12 13 13 14 15 15 15 16 18 16 12 9 10 12 14 16 17 17 16 18 19 19 18 19 20 23 30 36 38 35 31 31 31 28 25 24 21 19 18 17 16 15 15 14 12 11 11 9
3 2 6 6 5 6 4 3 4 4 4 4 5 3 2 5 10 10 7 7 8 7 8 9 10 10 10 11 13 13 13 13 13 14 14 15 17 17 15 13 13 12 12 11 10 10 9 10 11 12 13 14 14 14 15 16 16 15 9 7 12 17 18 19 18 18 18 16 16 19 19 19 19 20 22 24 29 35 33 28 27 26 22 20 20 21 20 19 18 17 15 15 14 12 12 11 10
2 4 5 0 3 4 4 1 2 1 6 5 5 4 6 7 8 8 7 7 9 8 9 10 10 11 11 11 12 12 12 13 13 13 13 15 17 18 17 16 15 14 13 12 12 11 11 12 13 14 15 15 15 14 14 12 10 5 3 3 12 14 15 18 17 18 20 17 16 18 19 20 19 21 22 18 19 25 25 21 20 19 18 20 21 21 21 19 19 18 16 15 14 13 12 11 10
4 5 3 4 2 3 4 4 2 4 7 5 6 6 7 7 6 8 9 7 8 8 9 10 10 11 11 11 11 12 13 13 13 14 14 15 18 19 18 17 17 16 14 13 13 12 12 12 14 15 16 16 16 14 13 11 8 5 2 5 9 9 11 15 15 18 19 17 17 17 18 20 19 18 18 14 12 17 19 20 20 20 24 26 25 24 22 20 19 18 16 15 13 12 11 10 10
3 1 4 3 4 5 4 4 4 6 8 6 7 9 8 7 6 11 11 8 8 7 8 9 10 11 10 11 11 13 13 12 13 13 13 14 17 19 19 19 19 18 16 15 14 14 13 13 14 14 15 16 16 14 13 11 10 9 8 7 6 6 8 11 12 14 14 15 18 17 16 18 15 14 15 16 17 20 24 26 23 21 26 27 25 24 22 20 19 17 15 14 12 12 11 10 10
1 2 4 2 4 4 4 5 5 6 8 7 8 8 5 2 7 13 11 8 8 7 7 8 10 10 9 9 10 11 12 11 11 11 11 13 16 19 20 19 19 19 18 17 16 16 15 14 14 14 14 14 14 14 13 12 12 12 11 8 4 5 8 10 11 12 14 16 18 17 16 15 14 15 17 18 21 23 26 30 29 27 28 28 26 23 21 19 18 16 15 14 12 12 11 11 10
3 5 5 4 3 2 3 5 5 6 8 7 8 8 2 4 7 10 11 9 7 6 7 8 9 9 9 9 9 9 10 9 10 10 10 12 15 17 18 18 19 19 19 18 17 17 17 15 15 14 14 14 13 13 13 13 14 15 15 12 8 7 8 9 10 12 14 16 17 17 15 12 14 16 16 17 21 24 25 27 29 29 28 26 24 22 20 18 17 16 15 14 13 12 12 12 10
3 4 4 4 4 4 6 7 5 5 8 6 7 8 1 6 5 7 10 8 7 7 7 8 9 9 9 9 9 9 9 9 10 10 10 11 14 16 17 18 18 19 20 19 18 18 18 17 16 15 14 14 13 13 12 12 13 14 14 14 13 10 9 8 9 11 13 14 15 16 14 12 13 15 15 16 20 25 26 24 24 25 24 23 23 22 20 19 18 17 15 14 13 13 13 12 11
Wind_Direction
244 238 239 245 248 261 248 239 260 198 238 310 56 21 94 95 340 182 171 143 110 52 52 58 138 146 186 290 175 112 33 21 352 17 122 98 137 146 148 145 143 144 145 148 151 153 154 156 154 146 139 136 137 136 132 127 123 121 121 121 123 124 123 123 121 119 117 118 118 116 117 116 115 114 113 111 111 114 111 105 108 112 119 122 117 113 111 108 103 102 106 111 114 115 112 109 106
237 236 233 237 237 251 257 225 274 274 224 37 59 29 71 150 214 208 134 104 118 146 127 117 134 140 323 339 126 133 71 46 35 63 86 124 138 142 151 150 148 146 145 147 149 151 152 154 151 143 138 139 140 137 130 127 124 119 119 120 122 122 121 120 118 117 117 117 116 116 117 116 115 113 111 111 112 114 111 104 106 111 116 116 113 113 110 101 100 106 113 116 117 115 111 108 106
228 231 225 230 230 235 269 231 272 351 40 44 57 65 66 215 79 63 91 108 144 153 122 121 135 135 199 166 135 130 97 71 78 86 105 143 145 147 154 152 149 144 140 141 145 148 149 151 147 141 141 142 139 133 130 126 122 119 119 119 119 119 119 118 117 117 117 117 117 118 118 116 117 118 116 112 112 113 114 116 116 113 116 117 115 116 108 101 104 110 116 117 116 114 111 108 104
219 225 231 243 239 227 253 245 281 344 40 45 46 71 58 360 45 70 102 114 139 151 126 140 139 69 293 141 111 96 97 90 87 92 125 145 143 150 155 151 147 139 135 138 144 145 148 151 144 142 143 140 135 132 130 126 122 119 118 118 117 117 118 118 117 117 117 118 119 119 118 119 123 126 126 121 118 122 125 125 118 112 117 120 116 116 111 105 110 114 117 116 114 114 112 108 101
214 226 234 251 269 269 268 264 287 350 43 36 37 61 50 26 60 104 117 123 141 170 133 152 136 95 341 58 54 123 102 106 90 102 131 128 134 148 155 148 143 137 135 138 142 144 147 149 143 143 141 136 135 133 129 124 120 118 118 117 116 117 118 118 117 117 118 119 120 121 122 126 127 130 135 131 125 129 128 119 112 110 117 123 117 117 115 110 113 116 116 114 113 113 111 106 95
228 236 224 238 275 317 273 276 39 50 49 19 27 48 42 40 97 120 134 135 146 160 116 126 231 150 132 72 62 48 70 124 113 119 132 134 141 148 151 145 143 139 138 139 140 141 143 145 144 143 139 136 135 131 126 121 118 118 118 117 117 118 119 120 120 121 120 119 121 120 119 124 125 128 134 130 125 125 120 114 110 108 116 127 124 118 117 113 115 115 114 112 111 111 109 102 94
253 260 230 237 239 236 273 20 46 48 53 18 10 27 29 60 135 140 153 151 149 149 130 169 220 151 122 112 91 62 77 107 115 132 134 140 143 146 147 146 145 141 142 142 137 138 140 143 144 141 137 135 131 125 121 118 119 118 116 115 116 117 120 122 123 122 122 122 123 120 119 123 123 124 127 128 126 122 116 111 109 110 118 127 125 118 115 113 115 115 114 112 112 111 108 101 98
256 272 267 272 251 212 276 38 56 41 43 27 6 21 20 66 158 166 165 160 141 149 144 157 206 111 96 138 104 87 100 92 114 131 134 139 142 144 146 146 145 143 143 140 135 136 138 142 142 138 135 131 125 120 119 120 119 117 116 115 116 119 121 124 124 124 125 125 124 122 123 122 121 124 129 132 129 123 119 116 115 114 119 125 123 116 115 117 121 121 119 116 117 117 114 105 96
245 257 267 272 278 312 53 41 60 52 36 37 37 54 36 146 171 163 146 85 105 139 130 130 192 135 116 123 102 111 111 107 124 130 137 140 142 144 145 147 145 142 141 136 132 133 138 142 141 137 133 127 124 123 123 122 120 119 118 117 118 121 123 126 127 127 128 126 123 121 119 116 117 120 121 123 124 125 124 123 121 118 121 124 120 115 115 120 125 130 129 124 126 126 126 117 97
247 248 282 274 292 35 60 44 51 56 43 42 46 58 85 161 170 153 128 103 111 130 110 131 173 138 130 121 107 117 116 128 134 135 143 143 145 147 145 148 145 143 140 134 132 133 138 142 141 137 132 130 128 126 125 125 125 123 121 120 121 123 126 130 131 131 129 125 122 119 116 115 117 117 114 115 119 123 123 122 120 122 124 119 116 114 115 118 123 133 140 138 138 135 136 138 122
264 228 269 285 26 45 47 45 47 52 54 58 64 66 94 144 154 129 111 106 117 124 120 166 150 129 131 116 106 111 122 141 143 143 147 147 150 149 147 148 147 145 140 137 135 135 137 141 141 138 136 135 131 128 129 130 128 125 124 125 125 125 126 129 130 131 129 124 121 120 119 118 119 118 114 112 112 115 117 118 117 120 121 118 118 117 115 117 122 134 148 155 154 146 146 153 158
289 312 278 333 35 35 30 44 52 53 61 62 70 73 101 142 143 128 121 113 128 131 139 193 131 135 136 113 113 121 137 152 147 148 150 151 153 150 148 147 147 146 144 141 138 140 141 143 142 140 141 137 134 133 132 132 130 129 130 130 128 125 125 126 126 128 128 125 124 125 124 120 120 119 115 113 110 111 114 116 117 120 121 123 123 117 110 108 114 124 136 155 162 163 162 157 157
300 329 318 7 26 26 27 44 59 56 65 54 65 77 113 149 124 116 118 117 135 132 130 136 130 146 125 107 124 133 151 154 147 152 153 153 152 150 147 146 148 148 149 145 142 145 145 145 144 146 146 139 138 136 134 133 133 134 133 134 132 128 127 125 125 128 127 127 128 130 129 123 120 119 117 119 113 112 115 118 121 125 129 132 128 118 109 102 104 109 116 134 147 154 146 132 123
302 320 320 357 34 36 24 38 58 52 66 58 78 99 133 106 42 102 131 132 117 91 105 126 147 154 121 121 145 148 158 155 151 155 155 153 149 150 148 147 150 149 152 148 146 148 147 148 149 151 149 143 142 138 136 136 136 138 138 138 136 134 131 128 128 128 127 127 127 129 130 124 121 120 119 121 120 121 122 124 125 127 135 139 135 122 110 105 101 102 108 119 130 130 120 118 117
293 311 299 332 37 42 25 26 35 48 65 67 97 119 140 79 21 189 145 131 95 76 109 139 180 174 144 155 165 151 151 155 157 155 154 152 150 153 149 149 151 152 155 152 152 153 154 154 154 156 153 150 146 141 143 141 142 143 142 142 140 139 135 135 134 128 127 125 122 124 125 123 125 124 120 122 125 125 121 127 129 124 133 138 134 121 109 108 105 109 112 114 121 119 117 118 112
282 296 280 335 35 32 22 10 6 45 47 60 113 145 169 115 174 204 49 76 105 127 156 146 177 355 137 130 131 137 142 153 157 154 154 154 154 154 151 152 154 155 160 159 160 160 163 162 162 162 159 157 151 146 147 145 148 148 147 145 144 143 140 141 138 134 129 123 124 121 116 120 126 123 120 122 126 128 132 142 137 129 131 129 120 110 104 104 103 121 145 145 129 119 123 113 87
266 274 282 12 34 27 19 6 4 2 356 39 135 179 195 134 153 133 92 150 131 158 175 127 114 22 62 79 120 132 139 150 153 155 158 157 157 157 157 159 159 161 165 167 167 168 171 171 171 166 162 160 153 149 148 150 152 150 150 149 148 149 149 147 141 136 128 125 127 117 115 127 133 128 125 125 121 125 137 139 129 124 125 119 111 100 90 85 85 106 135 147 148 137 116 83 42
257 280 312 23 33 22 11 360 1 336 319 315 170 197 214 160 155 157 166 183 148 163 171 140 135 83 59 96 124 132 141 151 156 161 162 163 164 163 165 166 168 169 170 173 175 176 177 178 178 170 164 161 155 153 152 158 156 150 154 154 154 156 156 150 142 141 139 142 141 128 131 143 142 136 136 136 131 131 133 126 121 121 120 115 104 91 81 80 85 95 110 126 132 117 96 87 359
262 305 317 39 26 5 359 347 347 321 313 309 240 201 219 180 150 169 185 172 159 173 172 171 167 134 118 130 133 136 147 157 163 169 169 170 171 169 170 171 174 174 175 177 178 181 181 182 182 174 169 165 163 160 159 163 160 159 162 160 160 162 162 157 155 158 156 156 154 146 145 146 141 139 144 144 143 144 134 122 121 115 112 109 96 73 56 77 88 87 96 104 92 74 77 143 209
272 309 312 42 11 349 5 349 339 317 305 289 250 194 207 178 145 181 200 172 174 189 176 177 180 157 149 147 144 146 155 164 170 175 176 176 174 173 173 172 175 176 178 178 177 182 183 182 183 179 176 174 173 169 165 164 164 165 166 167 165 167 169 167 168 165 159 158 157 152 144 140 138 139 141 135 133 139 131 121 117 104 100 99 92 75 33 58 70 66 70 70 60 46 50 339 319
305 299 321 9 347 339 1 353 348 323 300 276 245 191 196 181 161 188 208 195 184 196 182 181 182 161 157 156 155 158 163 170 176 181 182 181 178 176 175 173 175 174 176 178 177 181 184 183 182 182 181 180 180 175 170 167 167 169 170 171 169 169 172 172 171 165 162 162 160 154 143 141 142 143 143 138 140 146 144 140 131 121 133 127 108 119 153 83 64 122 44 33 22 16 19 357 336
292 274 322 337 325 332 345 346 351 325 300 254 223 199 186 171 183 199 216 221 170 184 182 179 176 161 160 161 160 163 169 174 178 184 185 185 183 180 178 174 173 173 176 180 177 179 184 184 183 183 184 185 186 180 175 171 170 173 174 173 171 173 174 172 171 169 171 170 164 157 150 150 153 154 156 158 153 149 148 150 150 145 150 149 136 138 145 134 106 150 255 338 328 352 349 327 317
287 276 323 319 320 322 326 339 341 313 285 236 208 199 177 178 199 204 222 239 56 62 189 175 156 157 160 161 163 168 174 177 180 186 187 186 186 184 183 180 177 177 179 181 177 178 184 186 185 185 185 187 189 187 181 176 177 178 176 177 177 177 176 176 174 171 176 178 170 163 161 162 165 165 166 166 159 153 152 151 152 149 150 147 145 141 126 137 92 45 327 330 325 319 320 312 302
272 290 323 322 320 311 317 334 328 301 269 240 184 187 191 202 210 191 220 235 84 64 173 161 140 151 161 163 168 173 176 179 181 186 188 188 188 187 187 187 185 183 183 182 177 177 184 187 187 186 188 188 189 190 188 184 183 180 179 180 182 182 179 179 178 174 178 184 179 171 170 174 173 170 168 167 163 158 155 155 157 150 152 149 137 142 136 183 293 337 332 330 319 311 315 315 306
259 299 323 323 313 311 322 330 324 299 259 213 174 200 206 211 215 200 227 229 159 106 125 145 145 153 164 168 172 176 177 180 181 184 189 190 190 190 192 193 191 191 190 186 183 180 182 186 188 189 189 190 190 191 193 192 187 184 184 185 187 188 184 182 180 176 178 184 185 179 176 182 184 177 170 168 165 163 161 164 172 165 151 155 156 193 261 293 296 317 331 320 314 316 318 319 312
327 316 317 317 310 318 327 328 334 295 241 188 192 206 199 188 197 237 238 221 167 144 141 149 155 161 169 172 175 179 178 179 181 182 188 191 191 193 196 197 197 198 196 191 190 188 185 186 189 191 191 192 192 193 194 195 191 189 190 190 190 190 189 185 180 179 182 183 186 186 184 190 194 185 177 173 170 170 170 173 180 178 164 174 214 255 267 295 311 320 330 325 328 324 322 322 314
344 314 312 307 304 318 324 336 6 246 205 204 219 196 173 173 202 238 231 187 167 163 162 159 165 170 173 174 175 181 181 180 182 181 187 193 194 197 199 200 200 201 199 195 196 195 190 190 192 193 193 193 194 195 197 196 194 195 194 193 193 192 192 187 182 184 186 185 186 188 191 198 200 196 192 189 190 187 183 185 190 191 182 185 206 236 246 273 302 316 330 327 327 323 319 319 319
317 309 305 293 292 306 321 358 32 247 155 202 241 202 186 186 219 238 175 148 171 176 170 168 177 177 175 177 175 181 183 181 182 185 191 194 195 197 199 200 201 200 201 201 200 197 191 191 195 196 195 195 195 198 199 200 197 197 196 194 193 191 192 190 189 191 191 191 188 189 193 198 202 206 207 205 205 207 201 200 203 204 192 188 198 213 232 248 273 296 301 302 307 307 311 316 321
292 297 294 291 272 225 349 19 32 311 96 159 232 223 209 201 224 232 165 152 170 175 175 175 184 181 178 179 177 181 183 181 184 191 194 195 196 195 198 200 199 200 201 203 203 199 194 193 196 198 199 198 198 199 200 203 201 198 195 193 193 188 189 192 194 197 197 196 194 195 198 199 207 212 213 212 215 221 216 214 213 209 204 202 204 212 228 237 247 273 271 281 295 294 303 315 319
274 265 275 292 250 177 61 42 53 291 98 161 230 244 204 194 219 208 164 175 178 179 187 183 185 183 182 181 181 185 182 183 188 194 194 194 197 194 196 197 197 201 201 202 203 202 200 197 196 197 201 202 201 201 202 205 205 203 197 193 194 190 191 194 197 202 200 201 203 202 205 208 214 217 219 219 220 226 221 221 220 212 210 209 213 222 229 233 234 257 273 288 301 295 305 316 315
265 260 247 268 248 130 73 48 22 202 133 180 236 257 216 164 204 174 165 188 192 202 202 188 187 183 185 185 186 188 185 189 191 193 193 192 196 194 195 195 194 200 200 201 203 204 204 201 198 197 199 201 202 202 203 206 207 207 202 196 197 195 195 197 198 202 201 204 205 203 206 210 215 218 220 220 222 226 224 224 224 219 216 215 222 228 235 242 238 259 289 301 301 296 306 314 313
243 263 234 214 247 113 102 78 13 15 123 189 229 252 230 115 60 144 173 199 205 220 214 197 194 187 189 189 190 193 188 191 193 194 193 191 194 192 193 194 193 197 200 200 200 202 206 204 202 200 197 197 200 203 205 207 208 209 208 203 202 200 201 203 201 201 201 203 205 203 205 206 211 214 215 217 219 222 224 224 225 225 224 225 230 234 243 247 244 260 286 296 295 297 307 314 314
209 248 257 205 252 184 132 144 105 356 44 193 222 265 273 125 93 135 184 213 216 228 225 209 202 194 194 190 190 197 191 189 193 194 192 191 194 192 192 193 194 197 199 199 197 199 205 206 206 205 200 196 196 200 203 206 208 209 212 211 212 209 209 211 207 204 203 205 206 204 204 205 209 212 212 213 214 216 220 222 222 221 222 228 231 237 244 246 251 256 265 276 285 297 304 311 314
192 216 246 214 244 263 167 153 156 276 294 208 215 248 281 291 157 170 181 209 222 233 237 223 212 202 197 193 192 197 196 193 192 193 192 191 193 192 191 192 194 197 199 202 200 198 201 204 206 208 204 197 194 196 200 204 206 206 211 214 218 219 220 220 215 212 210 210 210 207 206 207 209 211 212 211 211 214 215 217 218 215 217 224 226 233 238 236 241 245 253 259 271 293 301 312 316
206 201 241 212 212 232 219 147 142 256 266 237 215 227 260 279 248 197 176 202 236 241 246 239 225 210 198 197 198 198 199 198 193 191 191 190 191 191 190 191 192 196 198 202 203 201 200 200 203 207 204 197 195 196 198 202 204 205 209 214 219 225 228 228 224 220 217 215 214 211 209 211 212 212 213 211 211 212 212 213 213 212 214 219 222 226 226 223 228 233 239 246 261 280 293 309 316
295 263 268 269 236 219 211 43 65 300 264 242 236 243 266 283 301 42 113 220 272 267 256 249 236 221 210 208 207 203 203 200 189 187 190 190 189 189 190 191 192 197 199 199 202 204 204 200 200 204 201 195 195 198 200 202 206 207 208 212 217 222 229 232 230 226 222 220 218 214 212 214 214 214 214 214 213 212 212 210 208 210 214 217 221 220 218 219 222 224 227 236 250 260 279 313 326
268 257 246 253 250 221 153 105 82 300 261 224 266 288 292 289 355 39 34 14 340 336 318 285 270 246 234 232 225 216 207 192 170 173 185 188 188 188 191 193 194 198 200 200 201 204 205 202 200 202 199 195 196 197 199 201 204 207 208 212 215 218 223 227 229 227 224 224 223 220 218 217 216 216 215 214 214 214 213 211 207 207 211 215 218 220 220 220 218 217 219 224 232 238 257 337 343
247 249 245 241 236 200 109 101 97 262 259 186 97 288 267 271 40 44 33 31 29 16 11 352 336 318 259 229 207 200 184 166 154 160 179 189 192 192 193 196 198 199 201 202 204 205 205 205 205 204 198 197 198 195 194 197 202 206 208 211 213 216 219 221 225 226 224 225 226 224 223 222 221 220 218 215 215 215 214 213 209 206 206 209 213 220 223 222 218 214 210 208 208 207 193 41 3
239 238 245 241 220 172 117 119 129 194 262 192 117 280 260 95 63 52 44 44 43 35 32 24 8 353 302 203 168 181 180 180 180 181 188 192 194 195 197 201 203 205 206 205 207 207 207 208 210 206 200 198 198 195 195 196 199 204 208 211 211 212 215 218 223 227 227 228 229 228 225 224 224 223 223 220 218 217 215 214 212 208 206 203 206 217 221 220 216 210 206 203 191 179 164 100 33
232 233 237 228 199 193 167 146 157 205 272 296 288 271 247 113 85 68 59 56 55 55 54 49 40 28 360 349 212 212 209 205 200 196 194 193 193 193 197 202 202 205 208 209 209 209 209 211 210 206 203 200 197 196 197 199 199 202 207 211 212 211 210 215 221 224 227 230 231 229 227 225 224 222 222 221 222 222 219 217 214 211 206 199 205 215 216 214 213 205 201 198 191 181 163 129 73
212 223 241 243 209 217 196 144 180 210 212 241 260 247 223 111 84 73 68 66 60 57 59 57 53 49 48 45 38 311 263 248 234 222 206 198 198 198 199 202 201 204 208 209 209 208 210 212 210 207 203 201 199 194 195 202 204 205 207 210 216 216 213 219 226 227 228 230 230 229 228 226 225 224 223 220 221 224 224 221 217 213 207 201 205 213 210 208 209 204 195 190 192 190 167 148 126
207 203 226 260 253 215 194 172 205 225 196 169 262 257 197 108 77 70 71 70 63 55 54 54 52 52 54 55 53 49 42 48 253 264 239 213 209 209 206 205 207 209 211 211 211 211 213 213 211 209 205 205 199 189 196 207 209 208 204 202 208 210 213 222 228 232 231 229 232 233 232 229 228 228 227 224 222 222 225 228 227 221 211 206 208 211 204 201 204 201 192 187 188 186 171 163 157
220 162 179 238 243 205 194 196 223 247 214 131 249 275 217 128 82 74 78 73 66 57 51 50 50 51 51 52 53 53 53 60 73 14 309 257 230 222 215 212 217 220 219 219 220 221 223 221 216 212 209 209 198 190 202 212 211 207 201 203 213 218 222 227 231 236 235 233 235 236 236 234 232 233 233 232 228 223 224 231 239 238 224 211 211 210 199 195 201 198 191 188 184 179 174 170 166
217 93 106 231 217 204 195 207 232 252 255 162 208 258 257 196 94 83 90 78 63 54 48 47 48 50 52 52 52 53 52 52 56 53 34 359 303 262 241 227 227 229 227 226 230 232 233 232 228 222 219 218 207 197 209 218 212 199 198 210 227 238 241 239 235 234 235 235 236 236 237 238 238 239 239 238 237 233 228 226 237 246 239 220 212 211 199 190 195 193 188 187 184 180 177 172 167
76 69 323 274 236 217 203 218 236 237 251 235 202 201 254 223 118 97 92 78 60 53 48 45 46 47 49 50 51 53 54 53 53 51 44 31 7 326 286 257 242 235 230 228 231 237 238 237 234 231 230 228 220 207 212 222 215 199 205 213 218 226 233 236 234 231 232 234 235 237 237 238 243 244 239 238 244 244 236 226 226 237 241 229 216 213 199 188 190 190 188 188 185 181 175 172 169
70 77 195 178 203 210 211 233 238 207 235 257 216 188 246 236 130 116 92 73 54 54 50 46 47 46 45 45 46 49 51 53 54 53 47 38 26 7 338 302 273 251 242 238 239 242 240 237 236 235 235 234 231 220 215 220 212 200 209 216 218 221 227 232 231 227 228 229 231 233 230 233 242 239 229 230 236 236 233 231 222 220 229 229 221 214 196 185 189 192 192 191 186 181 174 173 173
109 206 207 187 191 195 214 238 250 229 231 252 231 192 238 250 118 90 82 70 46 54 55 45 45 45 42 42 42 43 44 47 49 51 49 42 35 27 19 4 337 300 270 254 251 251 246 244 244 242 241 239 237 228 220 218 208 204 215 221 222 221 224 229 229 226 226 227 230 226 218 228 235 231 225 229 228 221 221 226 220 213 219 223 218 210 194 185 189 193 195 193 188 183 177 174 175
210 230 225 212 204 205 223 218 224 241 244 247 204 169 223 247 109 91 93 83 60 55 54 44 40 39 40 42 43 41 40 41 40 41 42 38 36 35 32 25 13 352 316 283 267 261 254 253 252 249 249 244 240 231 220 217 212 213 219 221 221 221 223 227 229 231 230 229 227 223 224 232 234 228 227 229 223 214 214 218 216 210 209 213 211 204 194 188 190 194 195 193 189 185 181 179 178
213 223 223 227 227 223 234 229 219 238 248 184 149 177 217 224 96 106 102 88 72 59 51 43 39 39 42 47 47 44 42 41 39 36 34 32 28 30 29 24 20 12 352 324 286 267 259 258 257 255 255 252 247 238 224 219 219 219 218 217 218 221 225 229 233 237 238 238 236 234 234 236 237 233 232 232 225 216 213 213 210 203 200 207 210 205 197 192 192 197 197 193 190 187 185 184 184
208 219 226 235 237 231 235 236 229 242 237 142 140 194 202 129 113 115 102 89 79 69 60 52 50 48 49 51 49 46 44 42 41 37 34 31 25 23 24 22 19 13 3 349 315 285 273 269 267 265 265 264 259 253 242 231 225 224 225 226 224 223 232 242 248 250 248 248 249 246 241 236 236 237 235 235 230 220 214 210 205 201 202 206 208 205 201 198 198 199 198 194 192 190 188 188 190
215 236 247 244 242 242 247 249 246 253 243 147 152 201 204 158 135 118 107 98 85 79 76 68 62 57 52 49 45 42 40 38 37 36 33 30 25 22 21 19 17 12 5 358 343 321 299 287 282 280 280 279 274 268 261 251 243 241 240 242 252 256 260 263 263 262 254 250 253 251 248 244 240 238 235 233 231 224 217 211 206 205 203 201 201 203 202 202 204 204 201 197 194 191 189 190 195
200 229 247 248 254 249 249 286 293 282 264 204 183 183 75 110 122 116 117 108 98 91 82 72 61 53 47 43 38 34 34 34 33 33 30 28 25 23 21 18 16 12 5 358 351 340 323 309 300 295 295 296 295 288 278 275 270 260 241 238 257 256 255 254 254 259 259 256 257 254 252 249 244 241 235 229 226 222 216 211 208 206 200 194 198 204 204 203 205 205 203 199 195 193 192 194 200
190 223 234 214 357 272 235 238 51 276 258 228 191 157 104 121 136 132 135 116 106 100 81 68 55 50 46 40 35 30 32 32 33 33 30 28 27 26 23 21 19 15 8 1 354 349 339 328 319 311 311 313 314 313 310 304 290 271 137 208 257 257 259 261 257 256 259 260 258 253 250 250 248 246 239 229 222 217 212 208 206 204 205 210 214 214 210 207 205 206 206 202 198 195 195 200 206
248 232 186 107 50 255 243 250 200 225 250 227 213 213 170 168 167 149 152 131 108 100 81 67 52 46 44 41 36 32 32 32 33 34 31 29 30 29 27 26 26 23 17 11 4 360 353 343 336 329 329 330 329 333 339 340 332 320 308 263 269 274 272 270 261 254 255 258 257 253 252 253 254 251 242 231 222 215 208 206 206 209 216 222 224 219 212 209 208 208 209 207 203 200 200 206 210
320 218 145 162 241 222 218 248 235 235 250 245 241 238 215 207 177 155 160 141 116 104 82 68 54 47 43 39 36 33 32 31 31 33 31 28 28 30 29 29 31 30 26 22 17 14 8 359 353 346 343 341 341 354 1 351 339 326 309 282 258 251 256 260 258 257 258 258 258 257 258 256 250 243 234 224 217 214 210 209 206 210 218 221 221 218 212 210 210 210 211 211 208 205 207 213 215
90 159 171 217 269 252 231 243 252 254 257 260 258 246 234 212 148 148 145 124 114 100 82 71 59 56 51 44 42 38 35 32 30 33 34 32 30 31 31 31 34 34 31 30 28 25 20 13 7 359 355 350 348 357 359 343 333 331 327 320 285 251 252 251 249 253 256 257 257 256 254 247 234 233 235 230 224 217 214 214 209 207 213 215 214 214 211 209 210 211 213 214 212 210 215 221 223
199 212 213 207 217 248 248 238 242 257 261 261 263 256 227 91 111 133 126 111 104 90 84 79 67 65 61 54 51 47 43 39 34 33 34 33 33 32 33 33 34 35 34 34 33 30 26 22 17 11 5 2 356 353 347 336 332 329 329 328 319 294 273 261 255 255 259 261 262 262 255 238 231 236 235 230 225 216 210 212 211 210 213 213 210 211 210 209 212 215 217 218 217 217 221 225 227
276 247 235 222 221 228 242 241 226 239 259 261 265 267 193 109 113 118 115 107 97 88 86 86 77 72 70 64 60 56 52 47 41 37 34 33 34 33 34 34 35 35 34 33 33 32 29 24 21 18 14 10 4 358 350 341 335 332 331 330 327 322 307 293 285 280 278 275 272 272 264 244 241 246 238 229 226 221 218 216 214 214 216 215 213 213 212 212 214 216 218 221 222 224 228 230 232